C/2014 HU195 ( Valdes-TOTAS )

Japanese version
Home page
Updated on March 18, 2017

---------------------------------------------------------------------

* Profile

Discovery Date April 24, 2014
Magnitude 22.3 mag
Discoverer Frank Valdes (DECam NEO Survey), Teide Observatory Tenerife Asteroid Survey (TOTAS)

* Pictures

* Orbital Elements

Epoch 2015 May 18.0 TT = JDT 2457160.5
T 2015 May 18.04444 TT                                  MPCW
q   5.1211278            (2000.0)            P               Q
n   0.00967301     Peri.  145.07376     -0.15615295     +0.98350006
a  21.8153287      Node   115.78826     -0.92776253     -0.11431032
e   0.7652509      Incl.    5.82258     -0.33892911     -0.14021693
P 102
From 48 observations 2014 Apr. 24-2016 Oct. 29, mean residual 0".4.

* Magnitudes Graph

        m1 = -2 + 5 log d + 25 log r(t - 300)

---------------------------------------------------------------------

The orbital elements are published on M.P.E.C. 2016-V116.
The magnitudes graphs are made with Comet for Windows.

---------------------------------------------------------------------

Copyright(C) Seiichi Yoshida (comet@aerith.net). All rights reserved.